• Em Portugal
  • Lista de países
  • Para 7 dias
  • Temperatura da água
  • Mapas de satélite
  • Mapa do tempo
  • Widgets de tempo
  • user-avatar
    Iniciar Sessão

    Previsão horária em Telšiai

    Hoje, 21 Outubro, Domingo

    Tempo Temperatura Precipitação Vento Pressão Humidade
    00:00 +5°C° 0 mm 0 m/s 755 mmHg 92%
    01:00 +5°C° 0 mm 0 m/s 755 mmHg 92%
    02:00 +4°C° 0 mm 0 m/s 755 mmHg 92%
    03:00 +4°C° 0 mm 0 m/s 756 mmHg 92%
    04:00 +4°C° 0 mm 0 m/s 756 mmHg 92%
    05:00 +4°C° 0 mm 0 m/s 756 mmHg 92%
    06:00 +5°C° 0 mm 1 m/s 756 mmHg 92%
    07:00 +5°C° 0 mm 1 m/s 756 mmHg 92%
    08:00 +7°C° 0 mm 1 m/s 757 mmHg 85%
    09:00 +8°C° 0 mm 1 m/s 757 mmHg 79%
    10:00 +10°C° 0 mm 1 m/s 757 mmHg 72%
    11:00 +10°C° 0 mm 2 m/s 757 mmHg 70%
    12:00 +10°C° 0 mm 2 m/s 757 mmHg 68%
    13:00 +11°C° 0 mm 3 m/s 757 mmHg 66%
    14:00 +10°C° 0 mm 2 m/s 757 mmHg 71%
    15:00 +9°C° 0 mm 2 m/s 757 mmHg 76%
    16:00 +8°C° 0 mm 2 m/s 756 mmHg 82%
    17:00 +8°C° 0 mm 2 m/s 756 mmHg 85%
    18:00 +7°C° 0 mm 3 m/s 756 mmHg 89%
    19:00 +7°C° 0 mm 3 m/s 756 mmHg 92%
    20:00 +7°C° 0 mm 3 m/s 756 mmHg 92%
    21:00 +6°C° 0 mm 4 m/s 756 mmHg 92%
    22:00 +6°C° 0 mm 4 m/s 755 mmHg 92%
    23:00 +7°C° 0 mm 4 m/s 755 mmHg 91%

    Amanhã, 22 Outubro, Segunda-feira

    Tempo Temperatura Precipitação Vento Pressão Humidade
    00:00 +7°C° 0 mm 4 m/s 755 mmHg 90%
    01:00 +7°C° 0 mm 4 m/s 755 mmHg 89%
    02:00 +7°C° 0 mm 5 m/s 754 mmHg 89%
    03:00 +7°C° 0 mm 5 m/s 754 mmHg 89%
    04:00 +7°C° 0 mm 5 m/s 753 mmHg 90%
    05:00 +7°C° 0.1 mm 5 m/s 753 mmHg 89%
    06:00 +8°C° 0.1 mm 5 m/s 752 mmHg 89%
    07:00 +8°C° 0.1 mm 6 m/s 752 mmHg 88%
    08:00 +8°C° 0.4 mm 6 m/s 752 mmHg 88%
    09:00 +9°C° 0.4 mm 6 m/s 752 mmHg 88%
    10:00 +9°C° 0.4 mm 6 m/s 751 mmHg 88%
    11:00 +9°C° 0.9 mm 5 m/s 751 mmHg 88%
    12:00 +9°C° 0.9 mm 5 m/s 751 mmHg 89%
    13:00 +8°C° 0.9 mm 5 m/s 751 mmHg 89%
    14:00 +8°C° 0.6 mm 4 m/s 751 mmHg 87%
    15:00 +7°C° 0.6 mm 4 m/s 751 mmHg 85%
    16:00 +8°C° 0.6 mm 3 m/s 751 mmHg 83%
    17:00 +7°C° 0 mm 3 m/s 751 mmHg 83%
    18:00 +7°C° 0 mm 3 m/s 751 mmHg 82%
    19:00 +5°C° 0 mm 3 m/s 751 mmHg 82%
    20:00 +5°C° 0 mm 3 m/s 751 mmHg 81%
    21:00 +4°C° 0 mm 3 m/s 751 mmHg 81%
    22:00 +4°C° 0 mm 3 m/s 751 mmHg 80%
    23:00 +4°C° 0 mm 3 m/s 751 mmHg 81%

    Depois de amanhã, 23 Outubro, Terça-feira

    Tempo Temperatura Precipitação Vento Pressão Humidade
    00:00 +4°C° 0 mm 2 m/s 751 mmHg 82%
    01:00 +4°C° 0 mm 2 m/s 750 mmHg 83%
    02:00 +3°C° 0 mm 3 m/s 750 mmHg 84%
    03:00 +3°C° 0 mm 3 m/s 749 mmHg 85%
    04:00 +3°C° 0 mm 3 m/s 748 mmHg 86%
    05:00 +3°C° 0 mm 3 m/s 747 mmHg 86%
    06:00 +3°C° 0 mm 4 m/s 746 mmHg 85%
    07:00 +4°C° 0 mm 4 m/s 746 mmHg 85%
    08:00 +3°C° 0.4 mm 5 m/s 744 mmHg 84%
    09:00 +4°C° 0.4 mm 6 m/s 743 mmHg 84%
    10:00 +5°C° 0.4 mm 8 m/s 741 mmHg 83%
    11:00 +5°C° 1.7 mm 9 m/s 739 mmHg 84%
    12:00 +5°C° 1.7 mm 9 m/s 737 mmHg 85%
    13:00 +5°C° 1.7 mm 10 m/s 735 mmHg 85%
    14:00 +5°C° 2.8 mm 9 m/s 733 mmHg 87%
    15:00 +5°C° 2.8 mm 8 m/s 731 mmHg 89%
    16:00 +5°C° 2.8 mm 7 m/s 730 mmHg 91%
    17:00 +7°C° 2 mm 6 m/s 729 mmHg 92%
    18:00 +7°C° 2 mm 5 m/s 728 mmHg 93%
    19:00 +7°C° 2 mm 4 m/s 726 mmHg 93%
    20:00 +6°C° 0.2 mm 5 m/s 727 mmHg 90%
    21:00 +6°C° 0.2 mm 5 m/s 727 mmHg 87%
    22:00 +5°C° 0.2 mm 6 m/s 727 mmHg 84%
    23:00 +4°C° 0 mm 6 m/s 727 mmHg 81%

    24 Outubro, Quarta-feira

    Tempo Temperatura Precipitação Vento Pressão Humidade
    00:00 +3°C° 0 mm 7 m/s 728 mmHg 77%
    01:00 +3°C° 0 mm 7 m/s 728 mmHg 74%
    02:00 +2°C° 0 mm 7 m/s 729 mmHg 74%
    03:00 +2°C° 0 mm 7 m/s 729 mmHg 74%
    04:00 0°C° 0 mm 7 m/s 729 mmHg 74%
    05:00 +1°C° 0.5 mm 8 m/s 729 mmHg 74%
    06:00 +1°C° 0.5 mm 9 m/s 729 mmHg 74%
    07:00 +2°C° 0.5 mm 10 m/s 729 mmHg 73%
    08:00 +2°C° 0.5 mm 10 m/s 729 mmHg 74%
    09:00 +3°C° 0.5 mm 11 m/s 729 mmHg 74%
    10:00 +3°C° 0.5 mm 11 m/s 729 mmHg 74%
    11:00 +3°C° 0.5 mm 11 m/s 730 mmHg 75%
    12:00 +3°C° 0.5 mm 11 m/s 730 mmHg 75%
    13:00 +3°C° 0.5 mm 11 m/s 731 mmHg 76%
    14:00 +3°C° 0.4 mm 11 m/s 731 mmHg 75%
    15:00 +3°C° 0.4 mm 11 m/s 732 mmHg 74%
    16:00 +3°C° 0.4 mm 10 m/s 733 mmHg 73%
    17:00 +3°C° 0.2 mm 10 m/s 734 mmHg 73%
    18:00 +3°C° 0.2 mm 9 m/s 735 mmHg 72%
    19:00 +2°C° 0.2 mm 8 m/s 735 mmHg 72%
    20:00 +3°C° 0 mm 7 m/s 736 mmHg 73%
    21:00 +3°C° 0 mm 7 m/s 736 mmHg 75%
    22:00 +3°C° 0 mm 6 m/s 737 mmHg 76%
    23:00 +3°C° 0 mm 6 m/s 737 mmHg 77%

    25 Outubro, Quinta-feira

    Tempo Temperatura Precipitação Vento Pressão Humidade
    00:00 +3°C° 0 mm 6 m/s 737 mmHg 79%
    01:00 +2°C° 0 mm 6 m/s 738 mmHg 80%
    02:00 +2°C° 0 mm 6 m/s 738 mmHg 80%
    03:00 +2°C° 0 mm 5 m/s 738 mmHg 80%
    04:00 +2°C° 0 mm 5 m/s 738 mmHg 80%
    05:00 +1°C° 0 mm 5 m/s 738 mmHg 81%
    06:00 +1°C° 0 mm 4 m/s 738 mmHg 83%
    07:00 +2°C° 0 mm 3 m/s 738 mmHg 84%
    08:00 +3°C° 0 mm 4 m/s 738 mmHg 78%
    09:00 +4°C° 0 mm 4 m/s 738 mmHg 72%
    10:00 +5°C° 0 mm 4 m/s 737 mmHg 67%
    11:00 +5°C° 0 mm 4 m/s 737 mmHg 65%
    12:00 +5°C° 0 mm 4 m/s 737 mmHg 64%
    13:00 +6°C° 0 mm 4 m/s 737 mmHg 63%
    14:00 +5°C° 0 mm 3 m/s 737 mmHg 66%
    15:00 +5°C° 0 mm 3 m/s 737 mmHg 70%
    16:00 +5°C° 0 mm 2 m/s 737 mmHg 73%
    17:00 +5°C° 0 mm 2 m/s 737 mmHg 76%
    18:00 +5°C° 0 mm 2 m/s 737 mmHg 79%
    19:00 +5°C° 0 mm 2 m/s 737 mmHg 81%
    20:00 +5°C° 0 mm 2 m/s 737 mmHg 84%
    21:00 +4°C° 0 mm 2 m/s 737 mmHg 86%
    22:00 +3°C° 0 mm 3 m/s 737 mmHg 88%
    23:00 +3°C° 0 mm 3 m/s 737 mmHg 88%

    26 Outubro, Sexta-feira

    Tempo Temperatura Precipitação Vento Pressão Humidade
    00:00 +3°C° 0 mm 3 m/s 737 mmHg 87%
    01:00 +3°C° 0 mm 3 m/s 737 mmHg 86%
    02:00 +4°C° 0 mm 2 m/s 737 mmHg 87%
    03:00 +4°C° 0 mm 2 m/s 737 mmHg 88%
    04:00 +3°C° 0 mm 2 m/s 737 mmHg 89%
    05:00 +3°C° 0 mm 2 m/s 737 mmHg 88%
    06:00 +3°C° 0 mm 2 m/s 737 mmHg 88%
    07:00 +4°C° 0 mm 1 m/s 737 mmHg 88%
    08:00 +6°C° 0 mm 1 m/s 737 mmHg 82%
    09:00 +7°C° 0 mm 1 m/s 737 mmHg 76%
    10:00 +8°C° 0 mm 1 m/s 738 mmHg 71%
    11:00 +8°C° 0 mm 2 m/s 737 mmHg 68%
    12:00 +9°C° 0 mm 2 m/s 737 mmHg 66%
    13:00 +9°C° 0 mm 2 m/s 737 mmHg 64%
    14:00 +8°C° 0.2 mm 2 m/s 737 mmHg 70%
    15:00 +8°C° 0.2 mm 2 m/s 737 mmHg 76%
    16:00 +7°C° 0.2 mm 2 m/s 736 mmHg 82%
    17:00 +7°C° 1.3 mm 2 m/s 736 mmHg 87%
    18:00 +6°C° 1.3 mm 2 m/s 736 mmHg 91%
    19:00 +6°C° 1.3 mm 2 m/s 735 mmHg 96%
    20:00 +6°C° 1.3 mm 2 m/s 735 mmHg 96%
    21:00 +6°C° 1.3 mm 2 m/s 735 mmHg 96%
    22:00 +6°C° 1.3 mm 2 m/s 735 mmHg 96%
    23:00 +6°C° 0.8 mm 2 m/s 734 mmHg 96%
    Mostrar mais